UAL218 KSFO-KLAX

Flight info

Callsign UAL218
Flight time 0h 59m
Altitude 33000
Route WESLA5 SUSEY EBAYE BURGL IRNMN2
Aircraft A320/M-SDE3FGHIRWY/LB1

Departure

Time 2026-05-07 22:47
Airport San Francisco International Airport (KSFO)

Arrival

Time 2026-05-07 23:46
Airport Los Angeles International Airport (KLAX)
Time Latitude Longitude Altitude Speed Heading
2026-05-07 22:00 37.61999 -122.38687 21 ft 0 kts 300°
2026-05-07 22:28 37.61994 -122.38676 21 ft 2 kts 300°
2026-05-07 22:28 37.61983 -122.38651 21 ft 3 kts 302°
2026-05-07 22:28 37.61971 -122.38635 22 ft 3 kts 339°
2026-05-07 22:28 37.61959 -122.38630 22 ft 3 kts
2026-05-07 22:29 37.61952 -122.38631 23 ft 0 kts 15°
2026-05-07 22:33 37.61958 -122.38629 22 ft 3 kts 15°
2026-05-07 22:34 37.61984 -122.38618 21 ft 5 kts 22°
2026-05-07 22:34 37.62019 -122.38596 22 ft 4 kts 27°
2026-05-07 22:34 37.62034 -122.38586 21 ft 0 kts 27°
2026-05-07 22:36 37.62049 -122.38576 21 ft 5 kts 27°
2026-05-07 22:37 37.62088 -122.38530 21 ft 9 kts 69°
2026-05-07 22:37 37.62068 -122.38445 21 ft 12 kts 117°
2026-05-07 22:37 37.62026 -122.38345 21 ft 14 kts 118°
2026-05-07 22:37 37.61979 -122.38234 22 ft 14 kts 118°
2026-05-07 22:38 37.61935 -122.38129 21 ft 14 kts 117°
2026-05-07 22:38 37.61889 -122.38018 21 ft 14 kts 117°
2026-05-07 22:38 37.61850 -122.37926 21 ft 8 kts 117°
2026-05-07 22:38 37.61823 -122.37848 21 ft 11 kts 111°
2026-05-07 22:39 37.61792 -122.37747 21 ft 13 kts 111°
2026-05-07 22:39 37.61755 -122.37628 21 ft 16 kts 111°
2026-05-07 22:39 37.61713 -122.37497 21 ft 17 kts 116°
2026-05-07 22:39 37.61654 -122.37358 20 ft 19 kts 118°
2026-05-07 22:40 37.61590 -122.37203 20 ft 21 kts 117°
2026-05-07 22:40 37.61518 -122.37034 20 ft 23 kts 119°
2026-05-07 22:40 37.61432 -122.36875 20 ft 21 kts 133°
2026-05-07 22:40 37.61342 -122.36724 21 ft 21 kts 117°
2026-05-07 22:41 37.61273 -122.36559 22 ft 22 kts 118°
2026-05-07 22:41 37.61204 -122.36394 22 ft 21 kts 118°
2026-05-07 22:41 37.61142 -122.36248 20 ft 18 kts 118°
2026-05-07 22:41 37.61086 -122.36112 20 ft 18 kts 117°
2026-05-07 22:42 37.61048 -122.35998 21 ft 8 kts 91°
2026-05-07 22:42 37.61050 -122.35983 21 ft 0 kts 81°
2026-05-07 22:43 37.61050 -122.35982 21 ft 1 kts 81°
2026-05-07 22:44 37.61055 -122.35958 21 ft 5 kts 70°
2026-05-07 22:44 37.61086 -122.35912 21 ft 9 kts 36°
2026-05-07 22:44 37.61154 -122.35871 21 ft 13 kts 20°
2026-05-07 22:44 37.61197 -122.35896 22 ft 0 kts 297°
2026-05-07 22:46 37.61199 -122.35901 21 ft 3 kts 297°
2026-05-07 22:46 37.61309 -122.36168 22 ft 69 kts 298°
2026-05-07 22:46 37.61625 -122.36921 21 ft 122 kts 297°
2026-05-07 22:46 37.62076 -122.38009 127 ft 154 kts 298°
2026-05-07 22:47 37.62569 -122.39195 793 ft 155 kts 298°
2026-05-07 22:47 37.63086 -122.40396 1429 ft 157 kts 297°
2026-05-07 22:47 37.63628 -122.41639 1894 ft 170 kts 298°
2026-05-07 22:47 37.64238 -122.43035 2202 ft 193 kts 299°
2026-05-07 22:48 37.64934 -122.44620 2523 ft 219 kts 299°
2026-05-07 22:48 37.65707 -122.46374 3098 ft 235 kts 300°
2026-05-07 22:48 37.66507 -122.48200 3937 ft 240 kts 298°
2026-05-07 22:48 37.66914 -122.50323 4545 ft 264 kts 267°
2026-05-07 22:49 37.66226 -122.52501 5284 ft 278 kts 232°
2026-05-07 22:49 37.64631 -122.53889 6112 ft 286 kts 197°
2026-05-07 22:49 37.62658 -122.53979 6981 ft 288 kts 165°
2026-05-07 22:49 37.60796 -122.53026 7826 ft 290 kts 153°
2026-05-07 22:50 37.58965 -122.51920 8688 ft 293 kts 153°
2026-05-07 22:50 37.57114 -122.50800 9551 ft 296 kts 153°
2026-05-07 22:50 37.55240 -122.49663 10301 ft 304 kts 153°
2026-05-07 22:50 37.53230 -122.48550 10551 ft 328 kts 159°
2026-05-07 22:51 37.50994 -122.47633 10934 ft 343 kts 160°
2026-05-07 22:51 37.48801 -122.46410 11611 ft 347 kts 148°
2026-05-07 22:51 37.48199 -122.45948 11808 ft 346 kts 145°
2026-05-07 22:51 37.46384 -122.43966 12377 ft 347 kts 131°
2026-05-07 22:52 37.44724 -122.41708 13180 ft 348 kts 131°
2026-05-07 22:52 37.43105 -122.39491 13922 ft 350 kts 131°
2026-05-07 22:52 37.41448 -122.37219 14547 ft 353 kts 131°
2026-05-07 22:52 37.39776 -122.34930 15154 ft 357 kts 131°
2026-05-07 22:53 37.38080 -122.32618 15754 ft 361 kts 131°
2026-05-07 22:53 37.36365 -122.30288 16337 ft 365 kts 131°
2026-05-07 22:53 37.34628 -122.27933 16929 ft 369 kts 131°
2026-05-07 22:53 37.32869 -122.25555 17529 ft 373 kts 131°
2026-05-07 22:54 37.31091 -122.23149 18103 ft 378 kts 131°
2026-05-07 22:54 37.29292 -122.20714 18653 ft 382 kts 131°
2026-05-07 22:54 37.27475 -122.18254 19185 ft 386 kts 131°
2026-05-07 22:54 37.25635 -122.15763 19719 ft 390 kts 131°
2026-05-07 22:55 37.23783 -122.13258 20271 ft 395 kts 131°
2026-05-07 22:55 37.22083 -122.10966 20759 ft 398 kts 131°
2026-05-07 22:55 37.21028 -122.09540 20996 ft 401 kts 131°
2026-05-07 22:55 37.19146 -122.07000 21518 ft 405 kts 131°
2026-05-07 22:56 37.17216 -122.04404 22048 ft 409 kts 131°
2026-05-07 22:56 37.15269 -122.01789 22579 ft 412 kts 131°
2026-05-07 22:56 37.13303 -121.99147 23084 ft 416 kts 131°
2026-05-07 22:56 37.11316 -121.96478 23582 ft 420 kts 131°
2026-05-07 22:57 37.09306 -121.93780 24019 ft 424 kts 131°
2026-05-07 22:57 37.07287 -121.91071 24449 ft 426 kts 131°
2026-05-07 22:57 37.05254 -121.88345 24873 ft 429 kts 131°
2026-05-07 22:57 37.03233 -121.85639 25279 ft 432 kts 131°
2026-05-07 22:58 37.01176 -121.82886 25694 ft 434 kts 131°
2026-05-07 22:58 36.99103 -121.80114 26090 ft 437 kts 131°
2026-05-07 22:58 36.97017 -121.77328 26490 ft 440 kts 131°
2026-05-07 22:58 36.94917 -121.74524 26881 ft 442 kts 131°
2026-05-07 22:59 36.92811 -121.71719 27265 ft 445 kts 131°
2026-05-07 22:59 36.90675 -121.68882 27643 ft 447 kts 131°
2026-05-07 22:59 36.88536 -121.66041 28025 ft 450 kts 131°
2026-05-07 22:59 36.86384 -121.63181 28398 ft 452 kts 131°
2026-05-07 23:00 36.84221 -121.60305 28734 ft 455 kts 131°
2026-05-07 23:00 36.82050 -121.57416 29115 ft 457 kts 131°
2026-05-07 23:00 36.79892 -121.54552 29478 ft 460 kts 132°
2026-05-07 23:00 36.77694 -121.51643 29874 ft 462 kts 131°
2026-05-07 23:01 36.75478 -121.48716 30219 ft 465 kts 131°
2026-05-07 23:01 36.73252 -121.45774 30517 ft 467 kts 131°
2026-05-07 23:01 36.71012 -121.42813 30821 ft 469 kts 131°
2026-05-07 23:01 36.68772 -121.39848 31148 ft 470 kts 131°
2026-05-07 23:02 36.66532 -121.36889 31593 ft 468 kts 131°
2026-05-07 23:02 36.64298 -121.33944 32035 ft 467 kts 131°
2026-05-07 23:02 36.62066 -121.31008 32478 ft 465 kts 131°
2026-05-07 23:02 36.59844 -121.28087 32908 ft 464 kts 131°
2026-05-07 23:03 36.57624 -121.25170 33071 ft 463 kts 131°
2026-05-07 23:03 36.53274 -121.19463 33089 ft 454 kts 131°
2026-05-07 23:04 36.48948 -121.13792 33085 ft 445 kts 131°
2026-05-07 23:04 36.44721 -121.08273 33075 ft 438 kts 131°
2026-05-07 23:05 36.40596 -121.02731 33074 ft 436 kts 128°
2026-05-07 23:05 36.36653 -120.97000 33067 ft 436 kts 127°
2026-05-07 23:06 36.32743 -120.91250 33064 ft 436 kts 128°
2026-05-07 23:06 36.28802 -120.85549 33061 ft 435 kts 128°
2026-05-07 23:07 36.24848 -120.79906 33066 ft 436 kts 128°
2026-05-07 23:07 36.20863 -120.74238 33069 ft 436 kts 128°
2026-05-07 23:08 36.16887 -120.68567 33080 ft 436 kts 128°
2026-05-07 23:08 36.12909 -120.62899 33072 ft 436 kts 128°
2026-05-07 23:09 36.08930 -120.57241 33084 ft 436 kts 128°
2026-05-07 23:09 36.04951 -120.51594 33072 ft 435 kts 128°
2026-05-07 23:10 36.00970 -120.45959 33070 ft 435 kts 128°
2026-05-07 23:10 35.96997 -120.40333 33063 ft 434 kts 128°
2026-05-07 23:11 35.93016 -120.34715 33064 ft 434 kts 128°
2026-05-07 23:11 35.89046 -120.29114 33061 ft 434 kts 128°
2026-05-07 23:12 35.84475 -120.24225 33051 ft 439 kts 146°
2026-05-07 23:12 35.79283 -120.20329 33048 ft 440 kts 146°
2026-05-07 23:13 35.74059 -120.16403 33053 ft 440 kts 146°
2026-05-07 23:13 35.68835 -120.12469 33050 ft 440 kts 146°
2026-05-07 23:14 35.63610 -120.08529 33057 ft 440 kts 146°
2026-05-07 23:14 35.58391 -120.04584 33059 ft 440 kts 146°
2026-05-07 23:15 35.53178 -120.00643 33063 ft 440 kts 146°
2026-05-07 23:15 35.48843 -119.97384 33061 ft 439 kts 146°
2026-05-07 23:16 35.43631 -119.93474 33064 ft 439 kts 146°
2026-05-07 23:16 35.38406 -119.89552 33033 ft 440 kts 146°
2026-05-07 23:17 35.33176 -119.85629 33022 ft 442 kts 146°
2026-05-07 23:17 35.27989 -119.81596 33026 ft 441 kts 140°
2026-05-07 23:18 35.23112 -119.77028 33021 ft 442 kts 140°
2026-05-07 23:18 35.20651 -119.74720 32669 ft 445 kts 140°
2026-05-07 23:18 35.18211 -119.72441 32408 ft 439 kts 140°
2026-05-07 23:18 35.15791 -119.70187 32159 ft 436 kts 140°
2026-05-07 23:19 35.13380 -119.67945 31908 ft 434 kts 140°
2026-05-07 23:19 35.10977 -119.65710 31293 ft 433 kts 140°
2026-05-07 23:19 35.08630 -119.63531 30648 ft 427 kts 140°
2026-05-07 23:19 35.06278 -119.61343 29996 ft 423 kts 140°
2026-05-07 23:20 35.03947 -119.59169 29267 ft 419 kts 140°
2026-05-07 23:20 35.01644 -119.57019 28644 ft 413 kts 140°
2026-05-07 23:20 34.99367 -119.54899 28385 ft 412 kts 140°
2026-05-07 23:20 34.97082 -119.52778 28128 ft 412 kts 140°
2026-05-07 23:21 34.94806 -119.50672 27873 ft 410 kts 140°
2026-05-07 23:21 34.92537 -119.48575 27612 ft 408 kts 140°
2026-05-07 23:21 34.90275 -119.46492 27358 ft 406 kts 140°
2026-05-07 23:21 34.88011 -119.44445 27107 ft 404 kts 141°
2026-05-07 23:22 34.85744 -119.42419 26759 ft 402 kts 142°
2026-05-07 23:22 34.83504 -119.40431 26513 ft 398 kts 142°
2026-05-07 23:22 34.81272 -119.38455 26265 ft 395 kts 142°
2026-05-07 23:22 34.79054 -119.36486 26024 ft 394 kts 142°
2026-05-07 23:23 34.76877 -119.34549 25793 ft 392 kts 142°
2026-05-07 23:23 34.74679 -119.32586 25557 ft 391 kts 142°
2026-05-07 23:23 34.72491 -119.30641 25317 ft 390 kts 142°
2026-05-07 23:23 34.70292 -119.28710 25025 ft 389 kts 142°
2026-05-07 23:24 34.68097 -119.26793 24621 ft 388 kts 142°
2026-05-07 23:24 34.65901 -119.24881 24215 ft 387 kts 142°
2026-05-07 23:24 34.63709 -119.22981 23761 ft 388 kts 143°
2026-05-07 23:24 34.61514 -119.21093 23450 ft 383 kts 143°
2026-05-07 23:25 34.59367 -119.19251 22902 ft 374 kts 143°
2026-05-07 23:25 34.57253 -119.17440 22251 ft 372 kts 143°
2026-05-07 23:25 34.55147 -119.15626 21776 ft 371 kts 143°
2026-05-07 23:25 34.53059 -119.13792 21302 ft 370 kts 142°
2026-05-07 23:26 34.50986 -119.11946 20833 ft 369 kts 142°
2026-05-07 23:26 34.48924 -119.10105 20456 ft 365 kts 142°
2026-05-07 23:26 34.46900 -119.08302 19916 ft 357 kts 142°
2026-05-07 23:26 34.44903 -119.06530 19457 ft 355 kts 142°
2026-05-07 23:27 34.40939 -119.03051 18542 ft 349 kts 142°
2026-05-07 23:27 34.38998 -119.01372 18065 ft 346 kts 143°
2026-05-07 23:27 34.37043 -118.99689 17615 ft 344 kts 143°
2026-05-07 23:28 34.35103 -118.98018 17177 ft 342 kts 143°
2026-05-07 23:28 34.33173 -118.96346 16712 ft 340 kts 142°
2026-05-07 23:28 34.31281 -118.94653 16183 ft 337 kts 141°
2026-05-07 23:28 34.29415 -118.92952 15685 ft 334 kts 141°
2026-05-07 23:29 34.27571 -118.91262 15183 ft 332 kts 140°
2026-05-07 23:29 34.25738 -118.89581 14685 ft 329 kts 140°
2026-05-07 23:29 34.23912 -118.87905 14193 ft 331 kts 141°
2026-05-07 23:29 34.22097 -118.86230 13694 ft 333 kts 141°
2026-05-07 23:30 34.20273 -118.84547 13425 ft 327 kts 141°
2026-05-07 23:30 34.18496 -118.82917 13045 ft 315 kts 140°
2026-05-07 23:30 34.16766 -118.81332 12898 ft 311 kts 140°
2026-05-07 23:30 34.15086 -118.79682 12705 ft 311 kts 137°
2026-05-07 23:31 34.13471 -118.77957 12389 ft 309 kts 136°
2026-05-07 23:31 34.11905 -118.76214 12078 ft 308 kts 135°
2026-05-07 23:31 34.10330 -118.74447 11763 ft 306 kts 136°
2026-05-07 23:31 34.08763 -118.72707 11452 ft 306 kts 135°
2026-05-07 23:32 34.07196 -118.70983 11171 ft 304 kts 136°
2026-05-07 23:32 34.05635 -118.69281 10974 ft 298 kts 136°
2026-05-07 23:32 34.04194 -118.67540 10583 ft 290 kts 125°
2026-05-07 23:32 34.03182 -118.65464 10273 ft 287 kts 110°
2026-05-07 23:33 34.02662 -118.63156 9975 ft 284 kts 95°
2026-05-07 23:33 34.02447 -118.60789 9668 ft 284 kts 94°
2026-05-07 23:33 34.02227 -118.58420 9368 ft 284 kts 95°
2026-05-07 23:33 34.02001 -118.56040 9085 ft 286 kts 95°
2026-05-07 23:34 34.01775 -118.53664 8563 ft 288 kts 95°
2026-05-07 23:34 34.01548 -118.51261 7962 ft 287 kts 95°
2026-05-07 23:34 34.01325 -118.48928 7723 ft 273 kts 96°
2026-05-07 23:34 34.01116 -118.46714 7586 ft 256 kts 94°
2026-05-07 23:35 34.01190 -118.44675 7407 ft 244 kts 77°
2026-05-07 23:35 34.01536 -118.42672 7078 ft 239 kts 76°
2026-05-07 23:35 34.01870 -118.40736 6777 ft 233 kts 77°
2026-05-07 23:35 34.02191 -118.38881 6490 ft 226 kts 77°
2026-05-07 23:36 34.02507 -118.37048 6200 ft 222 kts 77°
2026-05-07 23:36 34.02803 -118.35228 6028 ft 221 kts 80°
2026-05-07 23:36 34.03021 -118.33388 6008 ft 223 kts 82°
2026-05-07 23:36 34.03213 -118.31525 6011 ft 223 kts 82°
2026-05-07 23:37 34.03401 -118.29669 6011 ft 223 kts 82°
2026-05-07 23:37 34.03591 -118.27809 6008 ft 223 kts 82°
2026-05-07 23:37 34.03784 -118.25954 5927 ft 222 kts 82°
2026-05-07 23:37 34.03980 -118.24111 5671 ft 221 kts 81°
2026-05-07 23:38 34.04181 -118.22275 5419 ft 221 kts 82°
2026-05-07 23:38 34.04383 -118.20437 5146 ft 220 kts 81°
2026-05-07 23:38 34.04586 -118.18605 4888 ft 220 kts 81°
2026-05-07 23:38 34.04788 -118.16780 4628 ft 219 kts 82°
2026-05-07 23:39 34.04927 -118.14976 4349 ft 218 kts 96°
2026-05-07 23:39 34.04379 -118.13320 4086 ft 213 kts 134°
2026-05-07 23:39 34.03157 -118.12382 3820 ft 204 kts 173°
2026-05-07 23:39 34.01768 -118.12323 3560 ft 200 kts 188°
2026-05-07 23:40 34.00386 -118.12540 3284 ft 199 kts 200°
2026-05-07 23:40 33.99248 -118.13387 3013 ft 191 kts 228°
2026-05-07 23:40 33.98502 -118.14651 2744 ft 188 kts 250°
2026-05-07 23:40 33.98149 -118.16156 2602 ft 188 kts 259°
2026-05-07 23:41 33.97902 -118.17712 2610 ft 189 kts 261°
2026-05-07 23:41 33.97676 -118.19277 2603 ft 191 kts 261°
2026-05-07 23:41 33.97452 -118.20854 2619 ft 187 kts 261°
2026-05-07 23:41 33.97223 -118.22312 2624 ft 169 kts 257°
2026-05-07 23:42 33.96972 -118.23634 2598 ft 154 kts 259°
2026-05-07 23:42 33.96802 -118.24859 2532 ft 145 kts 262°
2026-05-07 23:42 33.96663 -118.26039 2398 ft 141 kts 263°
2026-05-07 23:42 33.96538 -118.27193 2257 ft 139 kts 263°
2026-05-07 23:43 33.96418 -118.28330 2078 ft 135 kts 263°
2026-05-07 23:43 33.96303 -118.29456 1895 ft 135 kts 263°
2026-05-07 23:43 33.96188 -118.30580 1730 ft 135 kts 263°
2026-05-07 23:43 33.96074 -118.31700 1536 ft 134 kts 263°
2026-05-07 23:44 33.95961 -118.32808 1363 ft 134 kts 262°
2026-05-07 23:44 33.95851 -118.33916 1188 ft 133 kts 263°
2026-05-07 23:44 33.95743 -118.35013 994 ft 130 kts 263°
2026-05-07 23:44 33.95633 -118.36095 808 ft 129 kts 264°
2026-05-07 23:45 33.95524 -118.37168 660 ft 129 kts 263°
2026-05-07 23:45 33.95414 -118.38259 455 ft 131 kts 263°
2026-05-07 23:45 33.95301 -118.39318 276 ft 128 kts 263°
2026-05-07 23:45 33.95189 -118.40375 136 ft 127 kts 263°
2026-05-07 23:46 33.95097 -118.41302 107 ft 92 kts 263°
2026-05-07 23:46 33.95040 -118.41861 108 ft 42 kts 263°
2026-05-07 23:46 33.95005 -118.42073 106 ft 20 kts 248°
2026-05-07 23:46 33.94948 -118.42183 106 ft 9 kts 228°
2026-05-07 23:47 33.94893 -118.42246 103 ft 8 kts 219°
2026-05-07 23:47 33.94889 -118.42250 104 ft 0 kts 217°
2026-05-07 23:48 33.94886 -118.42252 104 ft 2 kts 217°
2026-05-07 23:49 33.94876 -118.42262 105 ft 0 kts 217°
2026-05-07 23:50 33.94869 -118.42266 105 ft 4 kts 208°
2026-05-07 23:50 33.94825 -118.42282 107 ft 10 kts 189°
2026-05-07 23:50 33.94726 -118.42276 102 ft 19 kts 173°
2026-05-07 23:50 33.94680 -118.42267 99 ft 0 kts 171°
2026-05-07 23:52 33.94678 -118.42259 98 ft 3 kts 114°
2026-05-07 23:52 33.94685 -118.42205 99 ft 9 kts 80°
2026-05-07 23:52 33.94697 -118.42121 99 ft 11 kts 82°
2026-05-07 23:52 33.94705 -118.42015 98 ft 14 kts 84°
2026-05-07 23:53 33.94688 -118.41936 97 ft 9 kts 153°
2026-05-07 23:53 33.94612 -118.41923 95 ft 13 kts 173°
2026-05-07 23:53 33.94528 -118.41911 95 ft 12 kts 173°
2026-05-07 23:53 33.94437 -118.41898 95 ft 15 kts 173°
2026-05-07 23:54 33.94332 -118.41882 95 ft 14 kts 173°
2026-05-07 23:54 33.94227 -118.41866 95 ft 15 kts 173°
2026-05-07 23:54 33.94120 -118.41851 95 ft 16 kts 173°
2026-05-07 23:54 33.94009 -118.41834 97 ft 15 kts 173°
2026-05-07 23:55 33.93914 -118.41820 96 ft 15 kts 173°
2026-05-07 23:55 33.93819 -118.41806 97 ft 12 kts 173°
2026-05-07 23:55 33.93740 -118.41794 101 ft 11 kts 172°
2026-05-07 23:55 33.93702 -118.41743 105 ft 8 kts 92°
2026-05-07 23:56 33.93709 -118.41662 104 ft 11 kts 84°
2026-05-07 23:56 33.93719 -118.41556 104 ft 14 kts 83°
2026-05-07 23:56 33.93732 -118.41427 103 ft 15 kts 83°
2026-05-07 23:56 33.93745 -118.41302 103 ft 16 kts 83°
2026-05-07 23:57 33.93759 -118.41171 102 ft 15 kts 82°
2026-05-07 23:57 33.93768 -118.41083 102 ft 8 kts 84°
2026-05-07 23:57 33.93773 -118.41029 102 ft 0 kts 83°
2026-05-07 23:57 33.93773 -118.41025 102 ft 0 kts 84°
2026-05-07 23:58 33.93774 -118.41014 102 ft 3 kts 83°
2026-05-07 23:58 33.93778 -118.40972 102 ft 7 kts 83°
2026-05-07 23:58 33.93805 -118.40923 100 ft 8 kts 17°
2026-05-07 23:59 33.93846 -118.40924 98 ft 9 kts 359°
2026-05-07 23:59 33.93871 -118.40884 98 ft 8 kts 79°
2026-05-07 23:59 33.93880 -118.40816 97 ft 8 kts 82°
2026-05-07 23:59 33.93903 -118.40771 97 ft 6 kts 40°
2026-05-08 00:00 33.93920 -118.40753 98 ft 4 kts 41°
2026-05-08 00:00 33.93934 -118.40738 98 ft 3 kts 43°
2026-05-08 00:00 33.93947 -118.40723 96 ft 2 kts 43°
2026-05-08 00:00 33.93949 -118.40721 96 ft 0 kts 43°